• In Belarus
  • List of Countries
  • For 7 days
  • Water Temperature
  • Satellite Maps
  • Weather Map
  • Weather Widgets
  • user-avatar
    Login

    Hourly Weather Mendoza

    Today, 23 October, Tuesday

    Time Temperature Precipitation Wind Pressure Humidity
    00:00 +14°C° 0 mm 4 mps 699 mmHg 67%
    01:00 +14°C° 0 mm 5 mps 699 mmHg 68%
    02:00 +13°C° 0 mm 5 mps 699 mmHg 67%
    03:00 +13°C° 0 mm 5 mps 699 mmHg 66%
    04:00 +13°C° 0 mm 5 mps 699 mmHg 65%
    05:00 +13°C° 0 mm 5 mps 699 mmHg 62%
    06:00 +14°C° 0 mm 5 mps 699 mmHg 59%
    07:00 +14°C° 0 mm 5 mps 699 mmHg 56%
    08:00 +16°C° 0 mm 5 mps 699 mmHg 53%
    09:00 +17°C° 0 mm 5 mps 699 mmHg 49%
    10:00 +20°C° 0 mm 5 mps 699 mmHg 46%
    11:00 +21°C° 0 mm 5 mps 698 mmHg 44%
    12:00 +21°C° 0 mm 4 mps 698 mmHg 43%
    13:00 +22°C° 0 mm 4 mps 697 mmHg 42%
    14:00 +22°C° 0 mm 4 mps 697 mmHg 43%
    15:00 +22°C° 0 mm 4 mps 697 mmHg 45%
    16:00 +22°C° 0 mm 3 mps 697 mmHg 46%
    17:00 +21°C° 0.1 mm 4 mps 697 mmHg 51%
    18:00 +20°C° 0.1 mm 4 mps 697 mmHg 55%
    19:00 +20°C° 0.1 mm 4 mps 698 mmHg 60%
    20:00 +19°C° 0.3 mm 4 mps 698 mmHg 63%
    21:00 +17°C° 0.3 mm 5 mps 698 mmHg 67%
    22:00 +17°C° 0.3 mm 5 mps 698 mmHg 70%
    23:00 +16°C° 0.1 mm 5 mps 697 mmHg 70%

    Tomorrow, 24 October, Wednesday

    Time Temperature Precipitation Wind Pressure Humidity
    00:00 +16°C° 0.1 mm 5 mps 697 mmHg 71%
    01:00 +15°C° 0.1 mm 5 mps 697 mmHg 71%
    02:00 +15°C° 0 mm 4 mps 697 mmHg 70%
    03:00 +14°C° 0 mm 4 mps 697 mmHg 69%
    04:00 +14°C° 0 mm 4 mps 696 mmHg 68%
    05:00 +15°C° 0 mm 4 mps 697 mmHg 65%
    06:00 +17°C° 0 mm 4 mps 697 mmHg 62%
    07:00 +18°C° 0 mm 4 mps 697 mmHg 58%
    08:00 +19°C° 0 mm 4 mps 698 mmHg 53%
    09:00 +21°C° 0 mm 4 mps 698 mmHg 49%
    10:00 +22°C° 0 mm 4 mps 698 mmHg 44%
    11:00 +23°C° 0 mm 4 mps 697 mmHg 40%
    12:00 +25°C° 0 mm 4 mps 697 mmHg 37%
    13:00 +27°C° 0 mm 4 mps 697 mmHg 33%
    14:00 +27°C° 0 mm 5 mps 697 mmHg 34%
    15:00 +27°C° 0 mm 5 mps 697 mmHg 35%
    16:00 +27°C° 0 mm 5 mps 697 mmHg 35%
    17:00 +26°C° 0.8 mm 5 mps 697 mmHg 41%
    18:00 +23°C° 0.8 mm 5 mps 698 mmHg 46%
    19:00 +22°C° 0.8 mm 5 mps 698 mmHg 52%
    20:00 +22°C° 1.4 mm 4 mps 699 mmHg 57%
    21:00 +21°C° 1.4 mm 3 mps 699 mmHg 61%
    22:00 +20°C° 1.4 mm 2 mps 699 mmHg 66%
    23:00 +20°C° 0.7 mm 3 mps 699 mmHg 69%

    Day after tomorrow, 25 October, Thursday

    Time Temperature Precipitation Wind Pressure Humidity
    00:00 +19°C° 0.7 mm 3 mps 699 mmHg 71%
    01:00 +18°C° 0.7 mm 4 mps 698 mmHg 74%
    02:00 +18°C° 0.2 mm 4 mps 698 mmHg 74%
    03:00 +17°C° 0.2 mm 4 mps 698 mmHg 75%
    04:00 +17°C° 0.2 mm 4 mps 698 mmHg 76%
    05:00 +17°C° 0 mm 4 mps 699 mmHg 73%
    06:00 +17°C° 0 mm 4 mps 699 mmHg 71%
    07:00 +18°C° 0 mm 4 mps 699 mmHg 68%
    08:00 +19°C° 0 mm 5 mps 699 mmHg 61%
    09:00 +20°C° 0 mm 5 mps 699 mmHg 53%
    10:00 +22°C° 0 mm 5 mps 699 mmHg 46%
    11:00 +22°C° 0 mm 5 mps 699 mmHg 44%
    12:00 +23°C° 0 mm 5 mps 698 mmHg 41%
    13:00 +25°C° 0 mm 5 mps 698 mmHg 39%
    14:00 +25°C° 0 mm 5 mps 697 mmHg 39%
    15:00 +25°C° 0 mm 5 mps 697 mmHg 40%
    16:00 +25°C° 0 mm 5 mps 697 mmHg 40%
    17:00 +23°C° 0.3 mm 5 mps 697 mmHg 44%
    18:00 +23°C° 0.3 mm 5 mps 698 mmHg 47%
    19:00 +22°C° 0.3 mm 5 mps 698 mmHg 51%
    20:00 +21°C° 0.6 mm 5 mps 699 mmHg 58%
    21:00 +19°C° 0.6 mm 4 mps 699 mmHg 65%
    22:00 +18°C° 0.6 mm 4 mps 699 mmHg 72%
    23:00 +18°C° 0.3 mm 4 mps 699 mmHg 72%

    26 October, Friday

    Time Temperature Precipitation Wind Pressure Humidity
    00:00 +17°C° 0.3 mm 4 mps 698 mmHg 72%
    01:00 +17°C° 0.3 mm 4 mps 698 mmHg 73%
    02:00 +15°C° 0 mm 4 mps 698 mmHg 71%
    03:00 +15°C° 0 mm 4 mps 698 mmHg 70%
    04:00 +15°C° 0 mm 4 mps 699 mmHg 69%
    05:00 +15°C° 0 mm 4 mps 699 mmHg 65%
    06:00 +17°C° 0 mm 4 mps 699 mmHg 61%
    07:00 +18°C° 0 mm 4 mps 700 mmHg 57%
    08:00 +19°C° 0 mm 4 mps 700 mmHg 54%
    09:00 +21°C° 0 mm 4 mps 700 mmHg 50%
    10:00 +22°C° 0 mm 3 mps 700 mmHg 47%
    11:00 +24°C° 0 mm 3 mps 699 mmHg 44%
    12:00 +25°C° 0 mm 3 mps 699 mmHg 42%
    13:00 +26°C° 0 mm 3 mps 698 mmHg 39%
    14:00 +26°C° 0 mm 3 mps 698 mmHg 39%
    15:00 +26°C° 0 mm 3 mps 698 mmHg 39%
    16:00 +26°C° 0 mm 3 mps 697 mmHg 38%
    17:00 +25°C° 0 mm 2 mps 698 mmHg 42%
    18:00 +25°C° 0 mm 2 mps 698 mmHg 45%
    19:00 +24°C° 0 mm 2 mps 698 mmHg 49%
    20:00 +23°C° 0 mm 2 mps 698 mmHg 51%
    21:00 +23°C° 0 mm 2 mps 698 mmHg 52%
    22:00 +23°C° 0 mm 2 mps 698 mmHg 54%
    23:00 +21°C° 0 mm 2 mps 698 mmHg 56%

    27 October, Saturday

    Time Temperature Precipitation Wind Pressure Humidity
    00:00 +21°C° 0 mm 2 mps 697 mmHg 57%
    01:00 +20°C° 0 mm 2 mps 697 mmHg 58%
    02:00 +20°C° 0 mm 2 mps 697 mmHg 60%
    03:00 +20°C° 0 mm 2 mps 697 mmHg 61%
    04:00 +19°C° 0 mm 2 mps 696 mmHg 63%
    05:00 +20°C° 0 mm 2 mps 697 mmHg 60%
    06:00 +21°C° 0 mm 3 mps 697 mmHg 56%
    07:00 +21°C° 0 mm 3 mps 697 mmHg 53%
    08:00 +22°C° 0 mm 3 mps 698 mmHg 50%
    09:00 +25°C° 0 mm 3 mps 698 mmHg 48%
    10:00 +26°C° 0 mm 4 mps 698 mmHg 45%
    11:00 +26°C° 0.1 mm 4 mps 697 mmHg 43%
    12:00 +27°C° 0.1 mm 4 mps 697 mmHg 41%
    13:00 +28°C° 0.1 mm 4 mps 697 mmHg 39%
    14:00 +28°C° 0.1 mm 4 mps 697 mmHg 38%
    15:00 +28°C° 0.1 mm 4 mps 697 mmHg 37%
    16:00 +28°C° 0.1 mm 4 mps 697 mmHg 37%
    17:00 +27°C° 0 mm 3 mps 697 mmHg 40%
    18:00 +27°C° 0 mm 3 mps 698 mmHg 43%
    19:00 +26°C° 0 mm 3 mps 699 mmHg 46%
    20:00 +25°C° 0.2 mm 2 mps 699 mmHg 49%
    21:00 +25°C° 0.2 mm 2 mps 699 mmHg 52%
    22:00 +24°C° 0.2 mm 2 mps 700 mmHg 55%
    23:00 +24°C° 0.5 mm 2 mps 699 mmHg 57%

    28 October, Sunday

    Time Temperature Precipitation Wind Pressure Humidity
    00:00 +23°C° 0.5 mm 2 mps 699 mmHg 60%
    01:00 +23°C° 0.5 mm 2 mps 698 mmHg 63%
    02:00 +21°C° 0.1 mm 3 mps 698 mmHg 65%
    03:00 +20°C° 0.1 mm 3 mps 698 mmHg 67%
    04:00 +20°C° 0.1 mm 3 mps 698 mmHg 69%
    05:00 +20°C° 0 mm 3 mps 698 mmHg 67%
    06:00 +21°C° 0 mm 3 mps 699 mmHg 65%
    07:00 +21°C° 0 mm 3 mps 699 mmHg 63%
    08:00 +22°C° 0 mm 3 mps 698 mmHg 58%
    09:00 +25°C° 0 mm 3 mps 698 mmHg 54%
    10:00 +26°C° 0 mm 3 mps 698 mmHg 49%
    11:00 +27°C° 0 mm 3 mps 697 mmHg 46%
    12:00 +28°C° 0 mm 3 mps 697 mmHg 43%
    13:00 +29°C° 0 mm 4 mps 696 mmHg 40%
    14:00 +29°C° 0.2 mm 4 mps 696 mmHg 39%
    15:00 +29°C° 0.2 mm 4 mps 696 mmHg 39%
    16:00 +29°C° 0.2 mm 3 mps 695 mmHg 38%
    17:00 +28°C° 0.3 mm 3 mps 696 mmHg 41%
    18:00 +28°C° 0.3 mm 2 mps 696 mmHg 44%
    19:00 +27°C° 0.3 mm 2 mps 696 mmHg 46%
    20:00 +26°C° 0 mm 2 mps 696 mmHg 47%
    21:00 +26°C° 0 mm 2 mps 696 mmHg 48%
    22:00 +25°C° 0 mm 2 mps 696 mmHg 48%
    23:00 +25°C° 0 mm 2 mps 696 mmHg 48%

    29 October, Monday

    Time Temperature Precipitation Wind Pressure Humidity
    00:00 +24°C° 0 mm 2 mps 695 mmHg 47%
    01:00 +23°C° 0 mm 2 mps 695 mmHg 47%
    02:00 +23°C° 0 mm 2 mps 695 mmHg 47%
    03:00 +21°C° 0 mm 2 mps 695 mmHg 47%
    04:00 +21°C° 0 mm 2 mps 695 mmHg 47%
    05:00 +23°C° 0 mm 2 mps 696 mmHg 46%
    06:00 +24°C° 0 mm 2 mps 696 mmHg 44%
    07:00 +25°C° 0 mm 2 mps 696 mmHg 43%
    08:00 +26°C° 0 mm 3 mps 696 mmHg 41%
    09:00 +27°C° 0 mm 3 mps 696 mmHg 38%
    10:00 +28°C° 0 mm 3 mps 696 mmHg 36%
    11:00 +29°C° 0 mm 3 mps 695 mmHg 33%
    12:00 +30°C° 0 mm 3 mps 695 mmHg 30%
    13:00 +31°C° 0 mm 3 mps 694 mmHg 28%
    14:00 +31°C° 0 mm 3 mps 694 mmHg 27%
    15:00 +31°C° 0 mm 3 mps 694 mmHg 26%
    16:00 +31°C° 0 mm 3 mps 693 mmHg 25%
    17:00 +30°C° 0.4 mm 3 mps 693 mmHg 28%
    18:00 +28°C° 0.4 mm 3 mps 694 mmHg 31%
    19:00 +27°C° 0.4 mm 4 mps 694 mmHg 34%
    20:00 +26°C° 0.7 mm 4 mps 694 mmHg 37%
    21:00 +25°C° 0.7 mm 4 mps 694 mmHg 40%
    22:00 +23°C° 0.7 mm 5 mps 694 mmHg 44%
    23:00 +21°C° 0.3 mm 5 mps 694 mmHg 52%
    Show more